星链-5870 (STARLINK-5870 )

导读

STARLINK-5870是美国太空探索技术公司(SpaceX)星链(Starlink)计划的卫星,于北京时间2023年7月7日发射入轨,隶属于星链互联网星座组网卫星,星链计划旨在搭建全球卫星互联网覆盖,该卫星为提升全球范围内高速互联网接入服务能力,补充星座网络覆盖与容量发挥作用。

Basic Information
目录编号:
57222
目录名称:
STARLINK-5870
国际标识:
2023-094E
轨道中心:
EARTH
卫星名称:
星链-5870
卫星全名:
星链-5870 (STARLINK-5870 )
卫星状态:
在轨 (已飞行1155 天)
发射日期:
2023-07-07 UTC
国别 :
美国 (US)
星等 :
--
Orbit Information
数据来源 国际轨道数据
星历时间: 2026-09-03T23:16:19+0800
18小时前
查看轨道信息
半长轴: 6861.199km
偏心率: 0.0001275
轨道倾角: 43.002°
近地点辐角 268.301°
升交点赤经 105.469°
平近点角 91.770°
近地点: 482.187km
远地点: 483.937km
周期: 94.267分钟
每日圈数: 15.275757
Detailed Information
固有亮度:
5
最大亮度:
2.4
卫星平台:
Starlink v1.5
覆盖范围:
全球
运营商:
太空探索技术公司
运营商所在国:
美国
制造商(研发单位):
太空探索技术公司
制造商所在国:
美国
使用方式:
暂无
Satellite Introduction
星链(Starlink)计划是由太空探索技术公司(SpaceX)提出的一个巨型低轨卫星互联网星座项目,计划在2019年至2024年间在太空搭建由约1.2万颗卫星组成的“星链”网络,其中1584颗将部署在地球上空550千米处的近地轨道,并从2020年开始工作。该卫星仍在工作。
2D Orbit Map
3D Orbit Map
Orbit Altitude Analysis Chart
Orbit Inclination Analysis Chart
Orbit Comprehensive Analysis Chart
View Comprehensive Chart
Conjunction Data List
Event ID Objects TCA Miss Dist (km) Collision Risk Probability Collision Risk Index (CRI) Action
CDM_260905-222505-722206-646421
2026-09-05T
22:25:15+0000
0.920 km
远距离
2.267528E-5 中风险 0.62
CDM_260906-114505-722206-646421
2026-09-06T
11:45:33+0000
1.079 km
极远距离
1.310781E-5 中风险 0.57
CDM_260905-205105-722206-646421
2026-09-05T
20:51:06+0000
1.169 km
极远距离
9.932527E-6 低风险 0.55
CDM_260829-165705-500305-722221
2026-08-29T
16:57:45+0000
2.411 km
极远距离
1.82533E-6 低风险 0.4
CDM_260906-101105-722206-646421
2026-09-06T
10:11:24+0000
2.228 km
极远距离
1.481433E-6 低风险 0.38
CDM_260906-131905-722206-646421
2026-09-06T
13:19:42+0000
2.688 km
极远距离
1.062287E-6 低风险 0.36
CDM_260905-235905-722206-646421
2026-09-05T
23:59:24+0000
2.723 km
极远距离
1.043314E-6 低风险 0.35
CDM_260905-191605-722206-646421
2026-09-05T
19:16:56+0000
2.914 km
极远距离
9.548915E-7 极低风险 0.35
CDM_260906-085205-683305-722221
2026-09-06T
08:52:55+0000
2.911 km
极远距离
7.511828E-7 极低风险 0.33